CW8484 Weather Reports


Display with metric or nautical units.
time (UTC)temp
F
wind
direction
speed
MPH
gust
MPH
rain 1hr
in
rain 24hr
in
rain mn
in
humidity
%
barometer
mb
20260509065404 32 189 0.0 2.0 0.00 0.00 0.00 83 1010.9
20260509064404 32 190 0.0 3.0 0.00 0.00 0.00 83 1010.8
20260509063426 33 190 1.0 4.0 0.00 0.00 0.00 82 1010.9
20260509062404 33 190 1.0 3.0 0.00 0.00 0.00 82 1010.8
20260509061425 32 189 1.0 4.0 0.00 0.00 0.00 83 1010.8
20260509060403 32 190 1.0 4.0 0.00 0.00 0.00 82 1010.9
20260509055404 33 193 0.0 3.0 0.00 0.00 0.00 81 1010.9
20260509054405 33 194 0.0 3.0 0.00 0.00 0.00 81 1011.0
20260509053425 34 194 0.0 3.0 0.00 0.00 0.00 80 1011.0
20260509052404 34 193 0.0 3.0 0.00 0.00 0.00 79 1011.0
20260509051404 34 193 1.0 5.0 0.00 0.00 0.00 80 1010.9
20260509050404 34 195 1.0 5.0 0.00 0.00 0.00 79 1010.8
20260509045404 35 224 0.0 2.0 0.00 0.00 0.00 78 1010.8
20260509044405 35 223 1.0 4.0 0.00 0.00 0.00 77 1010.8
20260509043404 36 225 0.0 3.0 0.00 0.00 0.00 76 1010.8
20260509042405 36 224 0.0 2.0 0.00 0.00 0.00 75 1010.9
20260509041405 36 225 0.0 1.0 0.00 0.00 0.00 75 1010.8
20260509040425 35 224 0.0 4.0 0.00 0.00 0.00 77 1010.7
20260509035425 36 225 0.0 4.0 0.00 0.00 0.00 78 1010.7
20260509034404 36 225 0.0 2.0 0.00 0.00 0.00 75 1010.6
20260509033404 36 226 0.0 2.0 0.00 0.00 0.00 76 1010.6
20260509032404 36 226 0.0 2.0 0.00 0.00 0.00 77 1010.5
20260509031426 36 226 0.0 2.0 0.00 0.00 0.00 76 1010.4
20260509030404 36 229 0.0 0.0 0.00 0.00 0.00 75 1010.3
20260509025404 36 229 0.0 0.0 0.00 0.00 0.00 75 1010.3
20260509024405 37 229 0.0 0.0 0.00 0.00 0.00 74 1010.2
20260509023404 38 229 0.0 0.0 0.00 0.00 0.00 73 1010.3
20260509022405 38 229 0.0 0.0 0.00 0.00 0.00 72 1010.2
20260509021404 40 229 0.0 0.0 0.00 0.00 0.00 72 1010.3
20260509015404 41 229 0.0 0.0 0.00 0.00 0.00 68 1010.0
20260509014404 41 229 0.0 2.0 0.00 0.00 0.00 68 1010.0
20260509013425 41 228 0.0 2.0 0.00 0.00 0.00 67 1010.0
20260509012425 41 228 0.0 3.0 0.00 0.00 0.00 70 1009.8
20260509011404 42 229 0.0 0.0 0.00 0.00 0.00 69 1009.7
20260509010403 42 229 0.0 0.0 0.00 0.00 0.00 70 1009.6
20260509004404 44 229 0.0 0.0 0.00 0.00 0.00 66 1009.1
20260509003404 44 229 0.0 0.0 0.00 0.00 0.00 62 1009.1
20260509002404 45 229 0.0 0.0 0.00 0.00 0.00 62 1009.0
20260509001404 45 229 0.0 0.0 0.00 0.00 0.00 61 1009.0
20260509000403 46 229 0.0 0.0 0.00 0.00 0.00 60 1009.0
20260508235425 46 229 0.0 0.0 0.00 0.00 0.00 60 1008.9
20260508234404 47 229 0.0 0.0 0.00 0.00 0.00 59 1008.9
20260508233403 47 229 0.0 0.0 0.00 0.00 0.00 60 1008.8
20260508232404 47 229 0.0 0.0 0.00 0.00 0.00 58 1008.7
20260508231404 48 229 0.0 0.0 0.00 0.00 0.00 53 1008.7
20260508230404 48 228 0.0 1.0 0.00 0.00 0.00 51 1008.7
20260508225446 49 229 0.0 0.0 0.00 0.00 0.00 52 1008.6
20260508224424 49 229 0.0 0.0 0.00 0.00 0.00 47 1008.7
20260508223404 50 229 0.0 0.0 0.00 0.00 0.00 46 1008.7
20260508222404 50 229 0.0 3.0 0.00 0.00 0.00 48 1008.6
20260508221404 50 228 2.0 5.0 0.00 0.00 0.00 47 1008.6
20260508220404 50 210 1.0 8.0 0.00 0.00 0.00 45 1008.6
20260508215403 51 225 3.0 8.0 0.00 0.00 0.00 44 1008.6
20260508214404 52 265 2.0 7.0 0.00 0.00 0.00 43 1008.6
20260508213425 52 235 2.0 5.0 0.00 0.00 0.00 46 1008.5
20260508212403 51 231 1.0 7.0 0.00 0.00 0.00 44 1008.5
20260508211404 50 270 0.0 4.0 0.00 0.00 0.00 46 1008.5
20260508210403 50 270 0.0 7.0 0.00 0.00 0.00 46 1008.4
20260508205404 50 269 5.0 9.0 0.00 0.00 0.00 45 1008.4
20260508204403 50 276 2.0 7.0 0.00 0.00 0.00 45 1008.4
20260508203404 50 273 3.0 13.0 0.00 0.00 0.00 46 1008.4
20260508202404 50 240 5.0 11.0 0.00 0.00 0.00 45 1008.3
20260508201403 50 217 5.0 9.0 0.00 0.00 0.00 44 1008.4
20260508200404 50 221 5.0 11.0 0.00 0.00 0.00 46 1008.4
20260508195403 49 228 4.0 8.0 0.00 0.00 0.00 51 1008.4
20260508194404 49 223 2.0 9.0 0.00 0.00 0.00 52 1008.4
20260508193404 49 250 2.0 11.0 0.00 0.00 0.00 51 1008.4
20260508192403 49 195 6.0 12.0 0.00 0.00 0.00 51 1008.4
20260508191404 49 168 5.0 14.0 0.00 0.00 0.00 50 1008.3
20260508190446 49 172 4.0 10.0 0.00 0.00 0.00 51 1008.3
20260508185404 50 182 6.0 12.0 0.00 0.00 0.00 51 1008.4
20260508184404 49 191 7.0 16.0 0.00 0.00 0.00 52 1008.5
20260508183424 49 206 4.0 11.0 0.00 0.00 0.00 51 1008.5
20260508182404 49 188 6.0 9.0 0.00 0.00 0.00 50 1008.5
20260508181424 49 231 4.0 9.0 0.00 0.00 0.00 50 1008.5
20260508180403 48 226 2.0 8.0 0.00 0.00 0.00 53 1008.6
20260508175404 48 225 4.0 8.0 0.00 0.00 0.00 53 1008.6
20260508174403 47 188 1.0 7.0 0.00 0.00 0.00 55 1008.6
20260508173405 47 233 2.0 6.0 0.00 0.00 0.00 55 1008.6
20260508172403 46 245 3.0 9.0 0.00 0.00 0.00 55 1008.6
20260508171425 46 269 5.0 8.0 0.00 0.00 0.00 55 1008.7
20260508170404 46 216 0.0 5.0 0.00 0.00 0.00 55 1008.7
20260508165403 46 223 3.0 6.0 0.00 0.00 0.00 55 1008.7
20260508164404 46 236 3.0 8.0 0.00 0.00 0.00 54 1008.7
20260508163403 47 241 2.0 5.0 0.00 0.00 0.00 54 1008.7
20260508162425 47 237 0.0 7.0 0.00 0.00 0.00 57 1008.7
20260508161403 47 228 2.0 11.0 0.00 0.00 0.00 55 1008.6
20260508160404 47 272 2.0 10.0 0.00 0.00 0.00 55 1008.7
20260508155403 47 264 5.0 12.0 0.00 0.00 0.00 53 1008.6
20260508154425 47 247 3.0 9.0 0.00 0.00 0.00 55 1008.6
20260508153425 47 238 5.0 13.0 0.00 0.00 0.00 54 1008.6
20260508152404 48 236 1.0 10.0 0.00 0.00 0.00 57 1008.5
20260508151403 50 247 5.0 11.0 0.00 0.00 0.00 54 1008.5
20260508150425 48 259 4.0 12.0 0.00 0.00 0.00 58 1008.5
20260508145403 47 265 8.0 13.0 0.00 0.00 0.00 59 1008.5
20260508144403 47 240 1.0 10.0 0.00 0.00 0.00 58 1008.5
20260508143446 47 260 1.0 9.0 0.00 0.00 0.00 57 1008.4
20260508142403 47 273 5.0 10.0 0.00 0.00 0.00 59 1008.5
20260508141403 46 250 3.0 15.0 0.00 0.00 0.00 65 1008.6
20260508140425 46 267 7.0 12.0 0.00 0.00 0.00 64 1008.5
20260508135403 44 216 1.0 8.0 0.00 0.00 0.00 70 1008.6
20260508134403 43 237 4.0 9.0 0.00 0.00 0.00 70 1008.6
20260508133403 43 222 3.0 5.0 0.00 0.00 0.00 72 1008.7
20260508132425 43 231 3.0 6.0 0.00 0.00 0.00 71 1008.6
20260508131404 42 241 3.0 9.0 0.00 0.00 0.00 73 1008.6
20260508130403 42 223 2.0 6.0 0.00 0.00 0.00 75 1008.6
20260508125404 41 247 3.0 9.0 0.00 0.00 0.00 74 1008.6
20260508124403 42 223 5.0 9.0 0.00 0.00 0.00 73 1008.6
20260508123425 42 230 5.0 11.0 0.00 0.00 0.00 73 1008.5
20260508122404 42 226 2.0 11.0 0.00 0.00 0.00 74 1008.5
20260508121446 42 187 1.0 7.0 0.00 0.00 0.00 74 1008.4
20260508120403 42 209 3.0 9.0 0.00 0.00 0.00 73 1008.3
20260508115403 41 233 4.0 9.0 0.00 0.00 0.00 72 1008.3
20260508114403 42 239 2.0 8.0 0.00 0.00 0.00 73 1008.1
20260508113424 41 161 2.0 12.0 0.00 0.00 0.00 73 1008.1
20260508112403 41 223 2.0 8.0 0.00 0.00 0.00 74 1008.1
20260508111403 41 222 0.0 7.0 0.00 0.00 0.00 74 1007.9
20260508110403 41 206 2.0 7.0 0.00 0.00 0.00 74 1007.8
20260508105404 40 228 4.0 9.0 0.00 0.00 0.00 74 1007.7
20260508104403 40 195 2.0 9.0 0.00 0.00 0.00 75 1007.7
20260508103404 40 226 3.0 10.0 0.00 0.00 0.00 76 1007.6
20260508102403 39 220 2.0 7.0 0.00 0.00 0.00 77 1007.4
20260508101403 39 202 1.0 6.0 0.00 0.00 0.00 77 1007.3
20260508100402 39 208 0.0 3.0 0.00 0.00 0.00 76 1007.1
20260508095403 39 208 0.0 5.0 0.00 0.00 0.00 76 1007.1
20260508094403 39 216 0.0 8.0 0.00 0.00 0.00 77 1007.0
20260508093403 39 223 3.0 8.0 0.00 0.00 0.00 78 1007.0
20260508092402 38 211 2.0 6.0 0.00 0.00 0.00 79 1006.9
20260508091403 38 211 1.0 7.0 0.00 0.00 0.00 79 1006.8
20260508090402 38 213 1.0 6.0 0.00 0.00 0.00 79 1006.8
20260508085403 38 205 2.0 8.0 0.00 0.00 0.00 79 1006.8
20260508084403 37 184 2.0 6.0 0.00 0.00 0.00 79 1006.8
20260508083403 37 196 2.0 5.0 0.00 0.00 0.00 79 1006.8
20260508082402 37 197 1.0 5.0 0.00 0.00 0.00 78 1006.8
20260508081403 37 199 2.0 5.0 0.00 0.00 0.00 79 1006.9
20260508080404 37 198 0.0 6.0 0.00 0.00 0.00 79 1006.8
20260508075403 36 224 1.0 5.0 0.00 0.00 0.00 79 1006.8
20260508074403 37 220 0.0 4.0 0.00 0.00 0.00 78 1006.7
20260508073403 37 225 2.0 5.0 0.00 0.00 0.00 77 1006.7
20260508072403 38 225 0.0 3.0 0.00 0.00 0.00 78 1006.7
20260508071403 39 226 0.0 4.0 0.00 0.00 0.00 75 1006.7